Location: Bishop's University Astronomical Observatory
(45.3661°N, 71.8475°W)
Time: 11:20:21
(UTC-04:00)

CZ-4C R/B - Visible Passes

Search period start: 24 July 2014 00:00
Search period end: 03 August 2014 00:00
Orbit: 792 x 1211 km, 63.4° (Epoch: 23 July)

Date Brightness Start Highest point End Pass type
(mag) Time Alt. Az. Time Alt. Az. Time Alt. Az.
24 Jul 5.4 00:52:48 10° NW 00:56:23 16° N 01:00:10 10° NNE visible
24 Jul 5.2 02:42:42 10° NNW 02:47:34 21° NNE 02:52:46 10° ENE visible
24 Jul 3.6 04:30:55 10° NNW 04:37:36 56° NE 04:44:51 10° ESE visible
24 Jul 3.1 21:44:32 10° WSW 21:50:02 54° NW 21:56:06 10° NNE visible
24 Jul 5.1 23:35:51 10° WNW 23:40:04 20° NNW 23:44:35 10° NNE visible
25 Jul 5.5 01:27:29 10° NNW 01:31:17 16° N 01:35:17 10° NE visible
25 Jul 4.7 03:16:16 10° NNW 03:22:05 31° NNE 03:28:22 10° E visible
25 Jul 4.3 22:19:04 10° W 22:24:08 31° NW 22:29:41 10° NNE visible
26 Jul 5.4 00:11:12 10° NW 00:14:51 16° N 00:18:43 10° NNE visible
26 Jul 5.2 02:01:28 10° NNW 02:06:06 20° NNE 02:11:01 10° ENE visible
26 Jul 3.8 03:49:45 10° NNW 03:56:17 49° NE 04:03:24 10° ESE visible
26 Jul 2.9 21:03:12 10° SW 21:08:45 64° NW 21:14:54 10° NE visible
26 Jul 5.0 22:54:12 10° WNW 22:58:36 21° NNW 23:03:20 10° NNE visible
27 Jul 5.4 00:46:05 10° NNW 00:49:45 16° N 00:53:37 10° NE visible
27 Jul 4.8 02:35:05 10° NNW 02:40:41 28° NNE 02:46:42 10° E visible
27 Jul 2.9 04:23:18 10° NW 04:30:11 84° NE 04:37:41 10° SE visible
27 Jul 4.1 21:37:33 10° WSW 21:42:46 36° NW 21:48:30 10° NNE visible
27 Jul 5.3 23:29:34 10° NW 23:33:20 16° N 23:37:19 10° NNE visible
28 Jul 5.3 01:20:13 10° NNW 01:24:36 18° NNE 01:29:15 10° ENE visible
28 Jul 4.0 03:08:34 10° NNW 03:14:58 43° NE 03:21:54 10° ESE visible
28 Jul 4.9 22:12:34 10° WNW 22:17:09 23° NNW 22:22:06 10° NNE visible
29 Jul 5.4 00:04:37 10° NNW 00:08:13 15° N 00:12:00 10° NE visible
29 Jul 4.8 01:53:54 10° NNW 01:59:15 25° NNE 02:05:00 10° E visible
29 Jul 3.1 03:42:06 10° NW 03:48:56 73° NE 03:56:23 10° SE visible
29 Jul 3.9 20:56:06 10° WSW 21:01:26 41° NW 21:07:18 10° NNE visible
29 Jul 5.3 22:47:56 10° NW 22:51:49 17° NNW 22:55:58 10° NNE visible
30 Jul 5.3 00:38:56 10° NNW 00:43:06 17° NNE 00:47:30 10° NE visible
30 Jul 4.1 02:27:24 10° NNW 02:33:37 38° NE 02:40:22 10° ESE visible
30 Jul 2.8 04:15:48 10° NW 04:22:37 64° WSW 04:30:00 10° SSE visible
30 Jul 4.7 21:30:57 10° W 21:35:43 25° NNW 21:40:53 10° NNE visible
30 Jul 5.3 23:23:07 10° NW 23:26:41 15° N 23:30:27 10° NNE visible
31 Jul 4.9 01:12:42 10° NNW 01:17:49 23° NNE 01:23:17 10° ENE visible
31 Jul 3.2 03:00:54 10° NW 03:07:40 64° NE 03:15:02 10° SE visible
31 Jul 3.4 04:49:54 10° NW 04:56:02 34° WSW 05:02:34 10° S visible
31 Jul 5.2 22:06:16 10° WNW 22:10:20 18° NNW 22:14:39 10° NNE visible
31 Jul 5.2 23:57:37 10° NNW 00:01:35 17° N 00:05:46 10° NE visible
01 Aug 4.3 01:46:14 10° NNW 01:52:15 34° NE 01:58:46 10° E visible
01 Aug 2.7 03:34:33 10° NW 03:41:26 75° SW 03:48:53 10° SSE visible
01 Aug 4.6 20:49:23 10° W 20:54:19 28° NNW 20:59:41 10° NNE visible
01 Aug 5.2 22:41:34 10° NW 22:45:09 16° N 22:48:56 10° NNE visible
02 Aug 4.9 00:31:29 10° NNW 00:36:21 21° NNE 00:41:32 10° ENE visible
02 Aug 3.4 02:19:43 10° NNW 02:26:23 56° NE 02:33:38 10° ESE visible
02 Aug 3.2 04:08:30 10° NW 04:14:55 40° WSW 04:21:45 10° S visible
02 Aug 5.1 21:24:36 10° WNW 21:28:51 20° NNW 21:33:23 10° NNE visible
02 Aug 5.2 23:16:16 10° NNW 23:20:03 16° N 23:24:04 10° NE visible
